Salina, KS

3:25 PM CDT on May 26, 2017 (GMT -0500)
Salina Municipal

Weather History for KSLN - January, 2015

Change the Weather History Date:

Thursday, January 15, 2015

  Actual Average Record
Temperature  
Mean Temperature 37 °F 31 °F  
Max Temperature 53 °F 41 °F 66 °F (1921)
Min Temperature 20 °F 20 °F -15 °F (1905)
Degree Days  
Heating Degree Days 28 34  
Month to date heating degree days 643 510  
Since 1 July heating degree days 2533 2474  
Moisture  
Dew Point 22 °F    
Average Humidity 60    
Maximum Humidity 84    
Minimum Humidity 35    
Precipitation  
Precipitation 0.00 in 0.02 in 0.33 in (1984)
Month to date precipitation 0.02 0.24  
Year to date precipitation 0.02 0.24  
Sea Level Pressure  
Sea Level Pressure 30.24 in    
Wind  
Wind Speed 6 mph (WSW)    
Max Wind Speed 16 mph    
Max Gust Speed 25 mph    
Visibility 10 miles    
Events      
T = Trace of Precipitation, MM = Missing Value Source: NWS Daily Summary

Daily Weather History Graph

Daily Weather History Graph

Search for Another Location

Airport or City:

Trip Planner

Search our weather history database for the weather conditions in past years. The results will help you decide how hot, cold, wet, or windy it might be!

Date:

Astronomy

Jan. 15, 2015 Rise Set
Actual Time 7:47 AM CST 5:32 PM CST
Civil Twilight 7:18 AM CST 6:02 PM CST
Nautical Twilight 6:45 AM CST 6:34 PM CST
Astronomical Twilight 6:13 AM CST 7:06 PM CST
Moon 2:43 AM CST (1/15) 1:24 PM CST (1/15)
Length of Visible Light 10h 43m
Length of Day
9h 45m
Waning Crescent, 27% of the Moon is Illuminated
Jan 15
Waning Crescent
Jan 20
New
Jan 26
First Quarter
Feb 3
Full
Feb 11
Last Quarter

Hourly Weather History & Observations

Time (CST) Temp. Windchill Dew Point Humidity Pressure Visibility Wind Dir Wind Speed Gust Speed Precip Events Conditions
12:53 AM 21.0 °F 14.6 °F 17.1 °F 85% 30.23 in 10.0 mi South 4.6 mph - N/A   Clear
1:53 AM 25.0 °F - 19.0 °F 78% 30.22 in 10.0 mi Calm Calm - N/A   Clear
2:53 AM 23.0 °F 17.0 °F 17.1 °F 78% 30.23 in 10.0 mi SSW 4.6 mph - N/A   Clear
3:53 AM 23.0 °F - 17.1 °F 78% 30.22 in 10.0 mi Calm Calm - N/A   Clear
4:53 AM 23.0 °F - 18.0 °F 81% 30.20 in 10.0 mi Calm Calm - N/A   Clear
5:53 AM 21.9 °F 15.7 °F 17.1 °F 82% 30.20 in 10.0 mi South 4.6 mph - N/A   Clear
6:53 AM 21.9 °F 17.2 °F 17.1 °F 82% 30.22 in 10.0 mi SSW 3.5 mph - N/A   Clear
7:53 AM 21.9 °F - 17.1 °F 82% 30.23 in 10.0 mi Calm Calm - N/A   Clear
8:53 AM 28.0 °F 24.2 °F 21.0 °F 75% 30.25 in 10.0 mi West 3.5 mph - N/A   Clear
9:53 AM 33.1 °F 24.4 °F 24.1 °F 70% 30.27 in 10.0 mi NW 11.5 mph - N/A   Clear
10:53 AM 37.9 °F 30.5 °F 24.1 °F 57% 30.30 in 10.0 mi NNW 11.5 mph - N/A   Clear
11:53 AM 43.0 °F 37.2 °F 24.1 °F 47% 30.28 in 10.0 mi NW 10.4 mph - N/A   Clear
12:53 PM 46.9 °F - 25.0 °F 42% 30.26 in 10.0 mi NW 12.7 mph 25.3 mph N/A   Clear
1:53 PM 50.0 °F - 26.1 °F 39% 30.24 in 10.0 mi NNW 12.7 mph - N/A   Clear
2:53 PM 52.0 °F - 26.1 °F 37% 30.24 in 10.0 mi WNW 12.7 mph - N/A   Clear
3:53 PM 53.1 °F - 26.1 °F 35% 30.24 in 10.0 mi WNW 9.2 mph - N/A   Clear
4:53 PM 48.9 °F - 27.0 °F 43% 30.25 in 10.0 mi West 6.9 mph - N/A   Clear
5:53 PM 41.0 °F 35.8 °F 26.1 °F 55% 30.25 in 10.0 mi WSW 8.1 mph - N/A   Clear
6:53 PM 39.0 °F 33.4 °F 25.0 °F 57% 30.26 in 10.0 mi West 8.1 mph - N/A   Clear
7:53 PM 36.0 °F 29.0 °F 26.1 °F 67% 30.25 in 10.0 mi SW 9.2 mph - N/A   Clear
8:53 PM 33.1 °F 26.1 °F 25.0 °F 72% 30.25 in 10.0 mi SW 8.1 mph - N/A   Clear
9:53 PM 32.0 °F - 24.1 °F 73% 30.25 in 10.0 mi Calm Calm - N/A   Clear
10:53 PM 32.0 °F 28.7 °F 24.1 °F 73% 30.25 in 10.0 mi South 3.5 mph - N/A   Clear
11:53 PM 28.9 °F 21.9 °F 21.9 °F 75% 30.25 in 10.0 mi SW 6.9 mph - N/A   Clear